Time,TemperatureF,DewpointF,PressureIn,WindDirection,WindDirectionDegrees,WindSpeedMPH,WindSpeedGustMPH,Humidity,HourlyPrecipIn,Conditions,Clouds,dailyrainin,SoftwareType,DateUTC
2013-09-13 00:03:00,45.7,42.6,30.15,SE,137,0.0,0.0,89,0.00,,,0.00,Wunderground v.1.15,2013-09-13 05:03:00,
2013-09-13 00:08:00,46.8,43.7,30.16,SE,138,0.0,0.0,89,0.00,,,0.00,Wunderground v.1.15,2013-09-13 05:08:00,
2013-09-13 00:14:00,47.9,44.8,30.15,SE,138,1.0,1.0,89,0.00,,,0.00,Wunderground v.1.15,2013-09-13 05:14:00,
2013-09-13 00:19:00,48.1,45.0,30.15,SE,138,0.0,1.0,89,0.00,,,0.00,Wunderground v.1.15,2013-09-13 05:19:00,
2013-09-13 00:25:00,47.4,44.0,30.15,SE,137,0.0,0.0,88,0.00,,,0.00,Wunderground v.1.15,2013-09-13 05:25:00,
2013-09-13 00:31:00,47.0,43.6,30.15,SE,138,1.0,1.0,88,0.00,,,0.00,Wunderground v.1.15,2013-09-13 05:31:00,
2013-09-13 00:36:00,46.5,43.1,30.16,SE,137,0.0,1.0,88,0.00,,,0.00,Wunderground v.1.15,2013-09-13 05:36:00,
2013-09-13 00:41:00,46.0,42.6,30.16,SE,137,0.0,0.0,88,0.00,,,0.00,Wunderground v.1.15,2013-09-13 05:41:00,
2013-09-13 00:46:00,45.6,42.3,30.16,SE,138,1.0,1.0,88,0.00,,,0.00,Wunderground v.1.15,2013-09-13 05:46:00,
2013-09-13 00:52:00,45.1,41.8,30.16,SE,138,0.0,0.0,88,0.00,,,0.00,Wunderground v.1.15,2013-09-13 05:52:00,
2013-09-13 00:57:00,44.9,41.6,30.16,SE,137,0.0,0.0,88,0.00,,,0.00,Wunderground v.1.15,2013-09-13 05:57:00,
2013-09-13 01:03:00,44.5,41.2,30.16,SE,137,0.0,0.0,88,0.00,,,0.00,Wunderground v.1.15,2013-09-13 06:03:00,
2013-09-13 01:08:00,44.2,40.9,30.16,SE,137,0.0,0.0,88,0.00,,,0.00,Wunderground v.1.15,2013-09-13 06:08:00,
2013-09-13 01:14:00,43.6,40.3,30.16,SE,138,0.0,0.0,88,0.00,,,0.00,Wunderground v.1.15,2013-09-13 06:14:00,
2013-09-13 01:20:00,43.0,39.7,30.16,SE,138,0.0,0.0,88,0.00,,,0.00,Wunderground v.1.15,2013-09-13 06:20:00,
2013-09-13 01:26:00,42.9,39.6,30.16,SE,137,0.0,0.0,88,0.00,,,0.00,Wunderground v.1.15,2013-09-13 06:26:00,
2013-09-13 01:31:00,43.0,40.0,30.16,SE,137,0.0,0.0,89,0.00,,,0.00,Wunderground v.1.15,2013-09-13 06:31:00,
2013-09-13 01:37:00,42.4,39.1,30.17,SE,137,0.0,0.0,88,0.00,,,0.00,Wunderground v.1.15,2013-09-13 06:37:00,
2013-09-13 01:43:00,42.5,39.5,30.17,SE,137,0.0,0.0,89,0.00,,,0.00,Wunderground v.1.15,2013-09-13 06:43:00,
2013-09-13 01:48:00,42.9,39.9,30.17,SE,137,0.0,0.0,89,0.00,,,0.00,Wunderground v.1.15,2013-09-13 06:48:00,
2013-09-13 01:54:00,43.6,40.6,30.17,SE,137,0.0,0.0,89,0.00,,,0.00,Wunderground v.1.15,2013-09-13 06:54:00,
2013-09-13 02:00:00,43.0,40.0,30.17,SE,138,0.0,0.0,89,0.00,,,0.00,Wunderground v.1.15,2013-09-13 07:00:00,
2013-09-13 02:06:00,42.2,39.2,30.17,SE,138,0.0,0.0,89,0.00,,,0.00,Wunderground v.1.15,2013-09-13 07:06:00,
2013-09-13 02:11:00,41.6,38.6,30.17,SE,138,0.0,0.0,89,0.00,,,0.00,Wunderground v.1.15,2013-09-13 07:11:00,
2013-09-13 02:16:00,41.4,38.4,30.17,SE,138,0.0,0.0,89,0.00,,,0.00,Wunderground v.1.15,2013-09-13 07:16:00,
2013-09-13 02:21:00,41.2,38.2,30.17,SE,138,0.0,0.0,89,0.00,,,0.00,Wunderground v.1.15,2013-09-13 07:21:00,
2013-09-13 02:26:00,41.2,38.2,30.17,SE,137,0.0,0.0,89,0.00,,,0.00,Wunderground v.1.15,2013-09-13 07:26:00,
2013-09-13 02:31:00,41.0,38.0,30.17,SE,138,0.0,0.0,89,0.00,,,0.00,Wunderground v.1.15,2013-09-13 07:31:00,
2013-09-13 02:36:00,40.9,38.2,30.17,SE,137,0.0,0.0,90,0.00,,,0.00,Wunderground v.1.15,2013-09-13 07:36:00,
2013-09-13 02:41:00,40.7,38.0,30.17,SE,138,0.0,0.0,90,0.00,,,0.00,Wunderground v.1.15,2013-09-13 07:41:00,
2013-09-13 02:46:00,40.4,37.7,30.17,SE,137,0.0,0.0,90,0.00,,,0.00,Wunderground v.1.15,2013-09-13 07:46:00,
2013-09-13 02:51:00,40.2,37.5,30.17,SE,138,0.0,0.0,90,0.00,,,0.00,Wunderground v.1.15,2013-09-13 07:51:00,
2013-09-13 02:56:00,40.3,37.6,30.17,SE,137,0.0,0.0,90,0.00,,,0.00,Wunderground v.1.15,2013-09-13 07:56:00,
2013-09-13 03:01:00,40.4,37.7,30.16,SE,138,0.0,0.0,90,0.00,,,0.00,Wunderground v.1.15,2013-09-13 08:01:00,
2013-09-13 03:06:00,40.1,37.4,30.17,SE,138,2.0,3.0,90,0.00,,,0.00,Wunderground v.1.15,2013-09-13 08:06:00,
2013-09-13 03:12:00,39.1,36.1,30.17,SE,138,0.0,1.0,89,0.00,,,0.00,Wunderground v.1.15,2013-09-13 08:12:00,
2013-09-13 03:17:00,39.1,36.4,30.17,SE,137,0.0,1.0,90,0.00,,,0.00,Wunderground v.1.15,2013-09-13 08:17:00,
2013-09-13 03:22:00,39.6,36.9,30.17,SE,137,0.0,0.0,90,0.00,,,0.00,Wunderground v.1.15,2013-09-13 08:22:00,
2013-09-13 03:27:00,39.9,37.2,30.17,SE,138,0.0,0.0,90,0.00,,,0.00,Wunderground v.1.15,2013-09-13 08:27:00,
2013-09-13 03:32:00,39.8,37.1,30.17,SE,138,0.0,0.0,90,0.00,,,0.00,Wunderground v.1.15,2013-09-13 08:32:00,
2013-09-13 03:37:00,39.5,36.8,30.17,SE,137,0.0,0.0,90,0.00,,,0.00,Wunderground v.1.15,2013-09-13 08:37:00,
2013-09-13 03:42:00,39.4,36.7,30.17,SE,137,0.0,0.0,90,0.00,,,0.00,Wunderground v.1.15,2013-09-13 08:42:00,
2013-09-13 03:47:00,39.2,36.5,30.17,SE,138,0.0,0.0,90,0.00,,,0.00,Wunderground v.1.15,2013-09-13 08:47:00,
2013-09-13 03:52:00,38.9,36.2,30.17,SE,137,0.0,0.0,90,0.00,,,0.00,Wunderground v.1.15,2013-09-13 08:52:00,
2013-09-13 03:57:00,38.5,35.8,30.17,SE,138,0.0,0.0,90,0.00,,,0.00,Wunderground v.1.15,2013-09-13 08:57:00,
2013-09-13 04:02:00,38.2,35.5,30.17,SE,138,0.0,0.0,90,0.00,,,0.00,Wunderground v.1.15,2013-09-13 09:02:00,
2013-09-13 04:07:00,38.4,35.7,30.17,SE,138,0.0,0.0,90,0.00,,,0.00,Wunderground v.1.15,2013-09-13 09:07:00,
2013-09-13 04:12:00,38.5,35.8,30.17,SE,137,0.0,0.0,90,0.00,,,0.00,Wunderground v.1.15,2013-09-13 09:12:00,
2013-09-13 04:17:00,38.3,35.6,30.17,SE,138,0.0,0.0,90,0.00,,,0.00,Wunderground v.1.15,2013-09-13 09:17:00,
2013-09-13 04:22:00,38.0,35.3,30.17,SE,138,0.0,0.0,90,0.00,,,0.00,Wunderground v.1.15,2013-09-13 09:22:00,
2013-09-13 04:27:00,37.7,35.0,30.17,SE,138,0.0,0.0,90,0.00,,,0.00,Wunderground v.1.15,2013-09-13 09:27:00,
2013-09-13 04:32:00,37.4,34.7,30.18,SE,137,0.0,0.0,90,0.00,,,0.00,Wunderground v.1.15,2013-09-13 09:32:00,
2013-09-13 04:37:00,37.5,35.1,30.18,SE,137,0.0,0.0,91,0.00,,,0.00,Wunderground v.1.15,2013-09-13 09:37:00,
2013-09-13 04:42:00,37.7,35.3,30.18,SE,138,0.0,0.0,91,0.00,,,0.00,Wunderground v.1.15,2013-09-13 09:42:00,
2013-09-13 04:47:00,37.6,35.2,30.18,SE,138,0.0,0.0,91,0.00,,,0.00,Wunderground v.1.15,2013-09-13 09:47:00,
2013-09-13 04:52:00,37.5,35.1,30.18,SE,138,0.0,0.0,91,0.00,,,0.00,Wunderground v.1.15,2013-09-13 09:52:00,
2013-09-13 04:57:00,37.2,34.5,30.18,SE,137,0.0,0.0,90,0.00,,,0.00,Wunderground v.1.15,2013-09-13 09:57:00,
2013-09-13 05:02:00,37.6,35.2,30.18,SE,138,0.0,0.0,91,0.00,,,0.00,Wunderground v.1.15,2013-09-13 10:02:00,
2013-09-13 05:07:00,37.9,35.5,30.18,SE,138,0.0,0.0,91,0.00,,,0.00,Wunderground v.1.15,2013-09-13 10:07:00,
2013-09-13 05:12:00,38.1,35.7,30.18,SE,137,0.0,0.0,91,0.00,,,0.00,Wunderground v.1.15,2013-09-13 10:12:00,
2013-09-13 05:17:00,38.0,35.6,30.18,SE,137,0.0,0.0,91,0.00,,,0.00,Wunderground v.1.15,2013-09-13 10:17:00,
2013-09-13 05:22:00,37.9,35.5,30.18,SE,138,0.0,0.0,91,0.00,,,0.00,Wunderground v.1.15,2013-09-13 10:22:00,
2013-09-13 05:28:00,38.0,35.6,30.19,SE,138,0.0,0.0,91,0.00,,,0.00,Wunderground v.1.15,2013-09-13 10:28:00,
2013-09-13 05:33:00,38.0,35.6,30.19,SE,138,0.0,0.0,91,0.00,,,0.00,Wunderground v.1.15,2013-09-13 10:33:00,
2013-09-13 05:38:00,37.7,35.3,30.19,SE,137,0.0,0.0,91,0.00,,,0.00,Wunderground v.1.15,2013-09-13 10:38:00,
2013-09-13 05:43:00,37.2,34.8,30.19,SE,138,0.0,0.0,91,0.00,,,0.00,Wunderground v.1.15,2013-09-13 10:43:00,
2013-09-13 05:48:00,37.1,34.7,30.19,SE,137,0.0,0.0,91,0.00,,,0.00,Wunderground v.1.15,2013-09-13 10:48:00,
2013-09-13 05:53:00,37.3,34.9,30.19,SE,138,0.0,0.0,91,0.00,,,0.00,Wunderground v.1.15,2013-09-13 10:53:00,
2013-09-13 05:58:00,37.1,34.7,30.19,SE,138,0.0,0.0,91,0.00,,,0.00,Wunderground v.1.15,2013-09-13 10:58:00,
2013-09-13 06:03:00,37.1,34.7,30.19,SE,137,0.0,0.0,91,0.00,,,0.00,Wunderground v.1.15,2013-09-13 11:03:00,
2013-09-13 06:08:00,37.4,35.0,30.19,SE,138,0.0,0.0,91,0.00,,,0.00,Wunderground v.1.15,2013-09-13 11:08:00,
2013-09-13 06:13:00,37.5,35.1,30.19,SE,138,0.0,0.0,91,0.00,,,0.00,Wunderground v.1.15,2013-09-13 11:13:00,
2013-09-13 06:18:00,37.1,34.7,30.19,SE,137,0.0,0.0,91,0.00,,,0.00,Wunderground v.1.15,2013-09-13 11:18:00,
2013-09-13 06:23:00,36.8,34.4,30.19,SE,138,0.0,0.0,91,0.00,,,0.00,Wunderground v.1.15,2013-09-13 11:23:00,
2013-09-13 06:28:00,36.6,34.2,30.19,SE,138,0.0,0.0,91,0.00,,,0.00,Wunderground v.1.15,2013-09-13 11:28:00,
2013-09-13 06:33:00,36.7,34.3,30.19,SE,138,0.0,0.0,91,0.00,,,0.00,Wunderground v.1.15,2013-09-13 11:33:00,
2013-09-13 06:38:00,36.8,34.4,30.20,SE,138,0.0,0.0,91,0.00,,,0.00,Wunderground v.1.15,2013-09-13 11:38:00,
2013-09-13 06:43:00,36.7,34.3,30.20,SE,138,0.0,0.0,91,0.00,,,0.00,Wunderground v.1.15,2013-09-13 11:43:00,
2013-09-13 06:48:00,36.5,34.1,30.20,SE,137,0.0,0.0,91,0.00,,,0.00,Wunderground v.1.15,2013-09-13 11:48:00,
2013-09-13 06:53:00,36.3,33.9,30.20,SE,138,0.0,0.0,91,0.00,,,0.00,Wunderground v.1.15,2013-09-13 11:53:00,
2013-09-13 06:58:00,36.4,34.0,30.20,SE,137,0.0,0.0,91,0.00,,,0.00,Wunderground v.1.15,2013-09-13 11:58:00,
2013-09-13 07:03:00,36.4,34.0,30.20,SE,137,0.0,0.0,91,0.00,,,0.00,Wunderground v.1.15,2013-09-13 12:03:00,
2013-09-13 07:08:00,36.4,34.0,30.20,SE,138,0.0,2.0,91,0.00,,,0.00,Wunderground v.1.15,2013-09-13 12:08:00,
2013-09-13 07:13:00,36.5,34.1,30.20,SE,138,0.0,0.0,91,0.00,,,0.00,Wunderground v.1.15,2013-09-13 12:13:00,
2013-09-13 07:18:00,36.7,34.3,30.20,SE,138,0.0,0.0,91,0.00,,,0.00,Wunderground v.1.15,2013-09-13 12:18:00,
2013-09-13 07:24:00,36.7,34.3,30.20,SE,138,0.0,0.0,91,0.00,,,0.00,Wunderground v.1.15,2013-09-13 12:24:00,
2013-09-13 07:29:00,36.8,34.7,30.20,SE,138,0.0,0.0,92,0.00,,,0.00,Wunderground v.1.15,2013-09-13 12:29:00,
2013-09-13 07:34:00,37.1,34.7,30.20,SE,138,0.0,0.0,91,0.00,,,0.00,Wunderground v.1.15,2013-09-13 12:34:00,
2013-09-13 07:39:00,37.7,35.6,30.20,SE,138,0.0,0.0,92,0.00,,,0.00,Wunderground v.1.15,2013-09-13 12:39:00,
2013-09-13 07:44:00,38.4,36.3,30.20,SE,138,0.0,0.0,92,0.00,,,0.00,Wunderground v.1.15,2013-09-13 12:44:00,
2013-09-13 07:49:00,39.2,37.1,30.21,SE,138,0.0,0.0,92,0.00,,,0.00,Wunderground v.1.15,2013-09-13 12:49:00,
2013-09-13 07:54:00,40.4,38.3,30.21,SE,138,0.0,0.0,92,0.00,,,0.00,Wunderground v.1.15,2013-09-13 12:54:00,
2013-09-13 07:59:00,41.9,39.7,30.21,SE,138,0.0,0.0,92,0.00,,,0.00,Wunderground v.1.15,2013-09-13 12:59:00,
2013-09-13 08:04:00,43.1,40.9,30.21,SE,137,0.0,0.0,92,0.00,,,0.00,Wunderground v.1.15,2013-09-13 13:04:00,
2013-09-13 08:09:00,44.7,42.5,30.20,SE,138,0.0,0.0,92,0.00,,,0.00,Wunderground v.1.15,2013-09-13 13:09:00,
2013-09-13 08:14:00,46.2,44.3,30.20,SE,138,0.0,0.0,93,0.00,,,0.00,Wunderground v.1.15,2013-09-13 13:14:00,
2013-09-13 08:19:00,47.0,45.1,30.20,SE,137,1.0,1.0,93,0.00,,,0.00,Wunderground v.1.15,2013-09-13 13:19:00,
2013-09-13 08:24:00,47.8,45.6,30.21,SE,138,0.0,2.0,92,0.00,,,0.00,Wunderground v.1.15,2013-09-13 13:24:00,
2013-09-13 08:29:00,48.7,46.8,30.21,SE,138,2.0,3.0,93,0.00,,,0.00,Wunderground v.1.15,2013-09-13 13:29:00,
2013-09-13 08:34:00,49.5,47.3,30.20,SE,138,0.0,2.0,92,0.00,,,0.00,Wunderground v.1.15,2013-09-13 13:34:00,
2013-09-13 08:39:00,50.5,48.3,30.21,SE,137,0.0,2.0,92,0.00,,,0.00,Wunderground v.1.15,2013-09-13 13:39:00,
2013-09-13 08:44:00,51.4,49.2,30.21,SE,138,0.0,2.0,92,0.00,,,0.00,Wunderground v.1.15,2013-09-13 13:44:00,
2013-09-13 08:49:00,52.1,49.8,30.21,SE,138,2.0,4.0,92,0.00,,,0.00,Wunderground v.1.15,2013-09-13 13:49:00,
2013-09-13 08:54:00,52.9,50.3,30.21,SE,136,2.0,3.0,91,0.00,,,0.00,Wunderground v.1.15,2013-09-13 13:54:00,
2013-09-13 08:59:00,53.5,50.9,30.21,SE,136,2.0,4.0,91,0.00,,,0.00,Wunderground v.1.15,2013-09-13 13:59:00,
2013-09-13 09:04:00,54.3,51.4,30.21,SE,136,0.0,3.0,90,0.00,,,0.00,Wunderground v.1.15,2013-09-13 14:04:00,
2013-09-13 09:09:00,55.0,51.5,30.21,SE,136,0.0,3.0,88,0.00,,,0.00,Wunderground v.1.15,2013-09-13 14:09:00,
2013-09-13 09:14:00,55.5,51.4,30.21,SE,136,2.0,4.0,86,0.00,,,0.00,Wunderground v.1.15,2013-09-13 14:14:00,
2013-09-13 09:19:00,56.1,51.3,30.21,SE,136,0.0,4.0,84,0.00,,,0.00,Wunderground v.1.15,2013-09-13 14:19:00,
2013-09-13 09:24:00,57.1,51.7,30.21,SE,136,0.0,3.0,82,0.00,,,0.00,Wunderground v.1.15,2013-09-13 14:24:00,
2013-09-13 09:29:00,58.0,51.5,30.21,SE,136,2.0,3.0,79,0.00,,,0.00,Wunderground v.1.15,2013-09-13 14:29:00,
2013-09-13 09:34:00,58.8,51.2,30.21,SE,136,0.0,2.0,76,0.00,,,0.00,Wunderground v.1.15,2013-09-13 14:34:00,
2013-09-13 09:39:00,59.3,51.4,30.21,SE,136,0.0,3.0,75,0.00,,,0.00,Wunderground v.1.15,2013-09-13 14:39:00,
2013-09-13 09:44:00,60.0,50.9,30.21,SE,136,0.0,4.0,72,0.00,,,0.00,Wunderground v.1.15,2013-09-13 14:44:00,
2013-09-13 09:49:00,60.7,51.2,30.21,SE,136,0.0,4.0,71,0.00,,,0.00,Wunderground v.1.15,2013-09-13 14:49:00,
2013-09-13 09:54:00,61.3,50.6,30.21,SE,136,3.0,4.0,68,0.00,,,0.00,Wunderground v.1.15,2013-09-13 14:54:00,
2013-09-13 10:00:00,61.7,50.6,30.21,SE,136,0.0,4.0,67,0.00,,,0.00,Wunderground v.1.15,2013-09-13 15:00:00,
2013-09-13 10:05:00,61.9,49.6,30.21,SE,136,0.0,4.0,64,0.00,,,0.00,Wunderground v.1.15,2013-09-13 15:05:00,
2013-09-13 10:10:00,62.2,48.6,30.21,SE,136,2.0,5.0,61,0.00,,,0.00,Wunderground v.1.15,2013-09-13 15:10:00,
2013-09-13 10:15:00,62.7,49.5,30.20,SE,136,1.0,5.0,62,0.00,,,0.00,Wunderground v.1.15,2013-09-13 15:15:00,
2013-09-13 10:20:00,63.1,48.1,30.20,SE,136,6.0,6.0,58,0.00,,,0.00,Wunderground v.1.15,2013-09-13 15:20:00,
2013-09-13 10:25:00,63.2,47.7,30.20,SE,136,2.0,5.0,57,0.00,,,0.00,Wunderground v.1.15,2013-09-13 15:25:00,
2013-09-13 10:30:00,63.6,47.6,30.20,SE,136,2.0,5.0,56,0.00,,,0.00,Wunderground v.1.15,2013-09-13 15:30:00,
2013-09-13 10:35:00,63.8,48.3,30.20,SE,136,3.0,4.0,57,0.00,,,0.00,Wunderground v.1.15,2013-09-13 15:35:00,
2013-09-13 10:40:00,64.2,47.2,30.20,SE,136,1.0,5.0,54,0.00,,,0.00,Wunderground v.1.15,2013-09-13 15:40:00,
2013-09-13 10:45:00,64.4,46.9,30.20,SE,136,0.0,5.0,53,0.00,,,0.00,Wunderground v.1.15,2013-09-13 15:45:00,
2013-09-13 10:50:00,64.5,47.0,30.20,SE,136,0.0,1.0,53,0.00,,,0.00,Wunderground v.1.15,2013-09-13 15:50:00,
2013-09-13 10:55:00,65.0,47.4,30.20,SSE,157,0.0,4.0,53,0.00,,,0.00,Wunderground v.1.15,2013-09-13 15:55:00,
2013-09-13 11:00:00,65.1,47.5,30.20,SSE,157,5.0,8.0,53,0.00,,,0.00,Wunderground v.1.15,2013-09-13 16:00:00,
2013-09-13 11:05:00,65.0,46.9,30.20,SE,141,0.0,6.0,52,0.00,,,0.00,Wunderground v.1.15,2013-09-13 16:05:00,
2013-09-13 11:10:00,65.3,47.7,30.20,SE,142,1.0,2.0,53,0.00,,,0.00,Wunderground v.1.15,2013-09-13 16:10:00,
2013-09-13 11:15:00,65.3,46.7,30.19,SE,141,0.0,6.0,51,0.00,,,0.00,Wunderground v.1.15,2013-09-13 16:15:00,
2013-09-13 11:20:00,65.8,48.2,30.19,SE,142,1.0,1.0,53,0.00,,,0.00,Wunderground v.1.15,2013-09-13 16:20:00,
2013-09-13 11:25:00,65.9,48.8,30.19,SE,142,4.0,7.0,54,0.00,,,0.00,Wunderground v.1.15,2013-09-13 16:25:00,
2013-09-13 11:30:00,66.1,49.0,30.19,SE,142,0.0,2.0,54,0.00,,,0.00,Wunderground v.1.15,2013-09-13 16:30:00,
2013-09-13 11:35:00,66.7,47.5,30.19,SE,138,2.0,6.0,50,0.00,,,0.00,Wunderground v.1.15,2013-09-13 16:35:00,
2013-09-13 11:40:00,66.2,46.5,30.19,SE,137,0.0,1.0,49,0.00,,,0.00,Wunderground v.1.15,2013-09-13 16:40:00,
2013-09-13 11:45:00,66.3,47.6,30.18,SE,132,5.0,6.0,51,0.00,,,0.00,Wunderground v.1.15,2013-09-13 16:45:00,
2013-09-13 11:50:00,66.1,47.4,30.18,SE,132,2.0,5.0,51,0.00,,,0.00,Wunderground v.1.15,2013-09-13 16:50:00,
2013-09-13 11:55:00,66.1,46.9,30.18,SE,132,3.0,6.0,50,0.00,,,0.00,Wunderground v.1.15,2013-09-13 16:55:00,
2013-09-13 12:00:00,66.0,47.9,30.18,SE,132,0.0,3.0,52,0.00,,,0.00,Wunderground v.1.15,2013-09-13 17:00:00,
2013-09-13 12:06:00,66.4,47.7,30.17,SE,132,0.0,4.0,51,0.00,,,0.00,Wunderground v.1.15,2013-09-13 17:06:00,
2013-09-13 12:11:00,66.7,47.5,30.17,SE,124,1.0,6.0,50,0.00,,,0.00,Wunderground v.1.15,2013-09-13 17:11:00,
2013-09-13 12:16:00,66.8,47.6,30.17,NE,41,2.0,11.0,50,0.00,,,0.00,Wunderground v.1.15,2013-09-13 17:16:00,
2013-09-13 12:21:00,67.6,47.8,30.17,East,88,6.0,6.0,49,0.00,,,0.00,Wunderground v.1.15,2013-09-13 17:21:00,
2013-09-13 12:26:00,67.0,48.8,30.17,East,97,3.0,8.0,52,0.00,,,0.00,Wunderground v.1.15,2013-09-13 17:26:00,
2013-09-13 12:31:00,67.2,48.5,30.16,East,96,1.0,6.0,51,0.00,,,0.00,Wunderground v.1.15,2013-09-13 17:31:00,
2013-09-13 12:36:00,67.0,47.2,30.16,East,101,3.0,6.0,49,0.00,,,0.00,Wunderground v.1.15,2013-09-13 17:36:00,
2013-09-13 12:41:00,67.4,48.1,30.16,ESE,113,5.0,5.0,50,0.00,,,0.00,Wunderground v.1.15,2013-09-13 17:41:00,
2013-09-13 12:46:00,67.2,47.9,30.16,ESE,113,3.0,5.0,50,0.00,,,0.00,Wunderground v.1.15,2013-09-13 17:46:00,
2013-09-13 12:51:00,67.6,48.3,30.16,ESE,102,7.0,7.0,50,0.00,,,0.00,Wunderground v.1.15,2013-09-13 17:51:00,
2013-09-13 12:56:00,68.5,47.5,30.15,NE,51,3.0,9.0,47,0.00,,,0.00,Wunderground v.1.15,2013-09-13 17:56:00,
2013-09-13 13:01:00,68.0,47.0,30.15,NE,54,0.0,3.0,47,0.00,,,0.00,Wunderground v.1.15,2013-09-13 18:01:00,
2013-09-13 13:06:00,67.9,48.0,30.15,NE,53,0.0,4.0,49,0.00,,,0.00,Wunderground v.1.15,2013-09-13 18:06:00,
2013-09-13 13:11:00,68.4,47.9,30.15,ENE,59,0.0,2.0,48,0.00,,,0.00,Wunderground v.1.15,2013-09-13 18:11:00,
2013-09-13 13:16:00,68.0,48.1,30.15,East,80,0.0,6.0,49,0.00,,,0.00,Wunderground v.1.15,2013-09-13 18:16:00,
2013-09-13 13:21:00,68.0,47.0,30.15,East,80,0.0,1.0,47,0.00,,,0.00,Wunderground v.1.15,2013-09-13 18:21:00,
2013-09-13 13:26:00,68.1,48.2,30.15,East,80,2.0,6.0,49,0.00,,,0.00,Wunderground v.1.15,2013-09-13 18:26:00,
2013-09-13 13:31:00,68.9,48.9,30.14,ENE,75,0.0,4.0,49,0.00,,,0.00,Wunderground v.1.15,2013-09-13 18:31:00,
2013-09-13 13:36:00,69.0,47.4,30.14,ENE,68,5.0,9.0,46,0.00,,,0.00,Wunderground v.1.15,2013-09-13 18:36:00,
2013-09-13 13:41:00,68.7,47.1,30.14,ENE,65,0.0,3.0,46,0.00,,,0.00,Wunderground v.1.15,2013-09-13 18:41:00,
2013-09-13 13:46:00,68.8,47.7,30.14,ENE,57,0.0,11.0,47,0.00,,,0.00,Wunderground v.1.15,2013-09-13 18:46:00,
2013-09-13 13:51:00,68.7,47.6,30.13,ENE,61,4.0,4.0,47,0.00,,,0.00,Wunderground v.1.15,2013-09-13 18:51:00,
2013-09-13 13:56:00,68.6,48.1,30.13,ENE,63,4.0,8.0,48,0.00,,,0.00,Wunderground v.1.15,2013-09-13 18:56:00,
2013-09-13 14:01:00,68.8,48.3,30.13,East,94,5.0,7.0,48,0.00,,,0.00,Wunderground v.1.15,2013-09-13 19:01:00,
2013-09-13 14:06:00,69.2,48.1,30.13,East,92,2.0,7.0,47,0.00,,,0.00,Wunderground v.1.15,2013-09-13 19:06:00,
2013-09-13 14:11:00,68.8,47.7,30.12,East,93,0.0,3.0,47,0.00,,,0.00,Wunderground v.1.15,2013-09-13 19:11:00,
2013-09-13 14:16:00,69.1,48.0,30.12,East,93,0.0,3.0,47,0.00,,,0.00,Wunderground v.1.15,2013-09-13 19:16:00,
2013-09-13 14:21:00,69.3,48.2,30.12,East,94,0.0,1.0,47,0.00,,,0.00,Wunderground v.1.15,2013-09-13 19:21:00,
2013-09-13 14:27:00,69.7,48.0,30.12,East,94,0.0,2.0,46,0.00,,,0.00,Wunderground v.1.15,2013-09-13 19:27:00,
2013-09-13 14:31:00,70.0,47.7,30.12,East,92,0.0,2.0,45,0.00,,,0.00,Wunderground v.1.15,2013-09-13 19:31:00,
2013-09-13 14:37:00,70.3,47.9,30.12,ENE,74,9.0,9.0,45,0.00,,,0.00,Wunderground v.1.15,2013-09-13 19:37:00,
2013-09-13 14:41:00,69.9,48.2,30.11,ENE,66,0.0,2.0,46,0.00,,,0.00,Wunderground v.1.15,2013-09-13 19:41:00,
2013-09-13 14:46:00,69.9,48.2,30.11,ENE,66,4.0,5.0,46,0.00,,,0.00,Wunderground v.1.15,2013-09-13 19:46:00,
2013-09-13 14:51:00,69.9,47.6,30.11,ENE,63,0.0,5.0,45,0.00,,,0.00,Wunderground v.1.15,2013-09-13 19:51:00,
2013-09-13 14:56:00,69.7,48.6,30.11,East,89,7.0,9.0,47,0.00,,,0.00,Wunderground v.1.15,2013-09-13 19:56:00,
2013-09-13 15:02:00,69.9,48.7,30.11,East,92,3.0,8.0,47,0.00,,,0.00,Wunderground v.1.15,2013-09-13 20:02:00,
2013-09-13 15:07:00,69.8,48.1,30.11,East,92,1.0,8.0,46,0.00,,,0.00,Wunderground v.1.15,2013-09-13 20:07:00,
2013-09-13 15:12:00,69.7,48.0,30.10,East,92,2.0,3.0,46,0.00,,,0.00,Wunderground v.1.15,2013-09-13 20:12:00,
2013-09-13 15:17:00,69.8,47.5,30.10,East,92,3.0,7.0,45,0.00,,,0.00,Wunderground v.1.15,2013-09-13 20:17:00,
2013-09-13 15:22:00,69.8,48.7,30.10,East,92,0.0,3.0,47,0.00,,,0.00,Wunderground v.1.15,2013-09-13 20:22:00,
2013-09-13 15:27:00,70.6,48.8,30.10,East,91,0.0,3.0,46,0.00,,,0.00,Wunderground v.1.15,2013-09-13 20:27:00,
2013-09-13 15:32:00,71.1,48.1,30.09,East,91,3.0,3.0,44,0.00,,,0.00,Wunderground v.1.15,2013-09-13 20:32:00,
2013-09-13 15:37:00,71.3,48.9,30.09,East,91,1.0,9.0,45,0.00,,,0.00,Wunderground v.1.15,2013-09-13 20:37:00,
2013-09-13 15:42:00,71.3,48.9,30.09,East,91,1.0,6.0,45,0.00,,,0.00,Wunderground v.1.15,2013-09-13 20:42:00,
2013-09-13 15:47:00,71.1,47.5,30.09,East,91,0.0,6.0,43,0.00,,,0.00,Wunderground v.1.15,2013-09-13 20:47:00,
2013-09-13 15:52:00,71.1,47.5,30.08,East,92,0.0,2.0,43,0.00,,,0.00,Wunderground v.1.15,2013-09-13 20:52:00,
2013-09-13 15:57:00,71.3,48.3,30.08,East,92,6.0,7.0,44,0.00,,,0.00,Wunderground v.1.15,2013-09-13 20:57:00,
2013-09-13 16:02:00,71.3,47.0,30.08,East,92,0.0,3.0,42,0.00,,,0.00,Wunderground v.1.15,2013-09-13 21:02:00,
2013-09-13 16:07:00,71.5,47.8,30.08,East,92,0.0,3.0,43,0.00,,,0.00,Wunderground v.1.15,2013-09-13 21:07:00,
2013-09-13 16:12:00,71.6,47.3,30.08,East,90,1.0,6.0,42,0.00,,,0.00,Wunderground v.1.15,2013-09-13 21:12:00,
2013-09-13 16:17:00,71.3,47.0,30.08,East,91,1.0,6.0,42,0.00,,,0.00,Wunderground v.1.15,2013-09-13 21:17:00,
2013-09-13 16:22:00,71.0,48.6,30.08,East,91,1.0,6.0,45,0.00,,,0.00,Wunderground v.1.15,2013-09-13 21:22:00,
2013-09-13 16:27:00,71.1,48.1,30.08,East,91,1.0,6.0,44,0.00,,,0.00,Wunderground v.1.15,2013-09-13 21:27:00,
2013-09-13 16:32:00,71.0,47.4,30.08,East,91,5.0,6.0,43,0.00,,,0.00,Wunderground v.1.15,2013-09-13 21:32:00,
2013-09-13 16:37:00,70.9,47.9,30.08,East,91,0.0,6.0,44,0.00,,,0.00,Wunderground v.1.15,2013-09-13 21:37:00,
2013-09-13 16:42:00,71.2,48.2,30.08,East,91,0.0,3.0,44,0.00,,,0.00,Wunderground v.1.15,2013-09-13 21:42:00,
2013-09-13 16:47:00,71.9,48.2,30.08,East,91,0.0,6.0,43,0.00,,,0.00,Wunderground v.1.15,2013-09-13 21:47:00,
2013-09-13 16:52:00,72.1,47.1,30.08,East,91,0.0,1.0,41,0.00,,,0.00,Wunderground v.1.15,2013-09-13 21:52:00,
2013-09-13 16:57:00,72.5,49.3,30.07,East,91,0.0,1.0,44,0.00,,,0.00,Wunderground v.1.15,2013-09-13 21:57:00,
2013-09-13 17:02:00,72.6,48.2,30.07,East,91,0.0,0.0,42,0.00,,,0.00,Wunderground v.1.15,2013-09-13 22:02:00,
2013-09-13 17:07:00,72.2,49.1,30.07,East,91,0.0,3.0,44,0.00,,,0.00,Wunderground v.1.15,2013-09-13 22:07:00,
2013-09-13 17:12:00,71.3,49.4,30.07,East,91,0.0,5.0,46,0.00,,,0.00,Wunderground v.1.15,2013-09-13 22:12:00,
2013-09-13 17:17:00,71.1,48.1,30.07,East,91,0.0,5.0,44,0.00,,,0.00,Wunderground v.1.15,2013-09-13 22:17:00,
2013-09-13 17:22:00,71.1,46.8,30.07,East,90,3.0,6.0,42,0.00,,,0.00,Wunderground v.1.15,2013-09-13 22:22:00,
2013-09-13 17:27:00,70.8,46.6,30.07,East,91,2.0,6.0,42,0.00,,,0.00,Wunderground v.1.15,2013-09-13 22:27:00,
2013-09-13 17:32:00,70.8,46.6,30.07,East,90,3.0,6.0,42,0.00,,,0.00,Wunderground v.1.15,2013-09-13 22:32:00,
2013-09-13 17:37:00,70.9,47.3,30.06,East,90,0.0,7.0,43,0.00,,,0.00,Wunderground v.1.15,2013-09-13 22:37:00,
2013-09-13 17:42:00,71.0,48.0,30.06,East,90,0.0,2.0,44,0.00,,,0.00,Wunderground v.1.15,2013-09-13 22:42:00,
2013-09-13 17:48:00,71.0,47.4,30.07,East,90,3.0,3.0,43,0.00,,,0.00,Wunderground v.1.15,2013-09-13 22:48:00,
2013-09-13 17:53:00,70.8,48.4,30.06,East,91,2.0,2.0,45,0.00,,,0.00,Wunderground v.1.15,2013-09-13 22:53:00,
2013-09-13 17:58:00,70.4,47.4,30.06,East,91,0.0,3.0,44,0.00,,,0.00,Wunderground v.1.15,2013-09-13 22:58:00,
2013-09-13 18:03:00,70.4,47.4,30.06,East,90,3.0,5.0,44,0.00,,,0.00,Wunderground v.1.15,2013-09-13 23:03:00,
2013-09-13 18:08:00,70.1,48.4,30.06,East,91,2.0,5.0,46,0.00,,,0.00,Wunderground v.1.15,2013-09-13 23:08:00,
2013-09-13 18:13:00,69.8,48.7,30.06,East,90,2.0,5.0,47,0.00,,,0.00,Wunderground v.1.15,2013-09-13 23:13:00,
2013-09-13 18:18:00,69.6,48.5,30.06,East,91,5.0,7.0,47,0.00,,,0.00,Wunderground v.1.15,2013-09-13 23:18:00,
2013-09-13 18:23:00,69.3,47.6,30.06,East,91,5.0,6.0,46,0.00,,,0.00,Wunderground v.1.15,2013-09-13 23:23:00,
2013-09-13 18:28:00,69.1,48.0,30.06,East,91,5.0,6.0,47,0.00,,,0.00,Wunderground v.1.15,2013-09-13 23:28:00,
2013-09-13 18:33:00,68.8,48.3,30.06,East,91,2.0,6.0,48,0.00,,,0.00,Wunderground v.1.15,2013-09-13 23:33:00,
2013-09-13 18:38:00,68.4,47.9,30.06,East,91,3.0,6.0,48,0.00,,,0.00,Wunderground v.1.15,2013-09-13 23:38:00,
2013-09-13 18:43:00,68.0,48.7,30.05,East,91,2.0,5.0,50,0.00,,,0.00,Wunderground v.1.15,2013-09-13 23:43:00,
2013-09-13 18:48:00,67.5,48.7,30.05,East,91,1.0,5.0,51,0.00,,,0.00,Wunderground v.1.15,2013-09-13 23:48:00,
2013-09-13 18:53:00,66.9,48.7,30.05,East,91,2.0,5.0,52,0.00,,,0.00,Wunderground v.1.15,2013-09-13 23:53:00,
2013-09-13 18:58:00,66.5,48.3,30.05,East,91,1.0,5.0,52,0.00,,,0.00,Wunderground v.1.15,2013-09-13 23:58:00,
2013-09-13 19:03:00,65.8,48.7,30.05,East,91,1.0,2.0,54,0.00,,,0.00,Wunderground v.1.15,2013-09-14 00:03:00,
2013-09-13 19:08:00,65.0,48.9,30.05,East,91,1.0,2.0,56,0.00,,,0.00,Wunderground v.1.15,2013-09-14 00:08:00,
2013-09-13 19:13:00,63.9,48.8,30.04,East,91,2.0,2.0,58,0.00,,,0.00,Wunderground v.1.15,2013-09-14 00:13:00,
2013-09-13 19:18:00,62.1,47.6,30.04,East,91,2.0,3.0,59,0.00,,,0.00,Wunderground v.1.15,2013-09-14 00:18:00,
2013-09-13 19:23:00,60.3,46.8,30.04,East,91,3.0,3.0,61,0.00,,,0.00,Wunderground v.1.15,2013-09-14 00:23:00,
2013-09-13 19:28:00,59.4,46.8,30.04,East,91,1.0,3.0,63,0.00,,,0.00,Wunderground v.1.15,2013-09-14 00:28:00,
2013-09-13 19:33:00,58.7,46.5,30.04,East,91,0.0,2.0,64,0.00,,,0.00,Wunderground v.1.15,2013-09-14 00:33:00,
2013-09-13 19:38:00,57.8,46.1,30.04,East,91,0.0,2.0,65,0.00,,,0.00,Wunderground v.1.15,2013-09-14 00:38:00,
2013-09-13 19:43:00,56.9,46.1,30.04,East,91,0.0,2.0,67,0.00,,,0.00,Wunderground v.1.15,2013-09-14 00:43:00,
2013-09-13 19:48:00,56.0,46.0,30.04,East,91,3.0,3.0,69,0.00,,,0.00,Wunderground v.1.15,2013-09-14 00:48:00,
2013-09-13 19:53:00,55.5,45.9,30.04,East,91,0.0,1.0,70,0.00,,,0.00,Wunderground v.1.15,2013-09-14 00:53:00,
2013-09-13 19:58:00,54.9,45.7,30.04,East,91,0.0,1.0,71,0.00,,,0.00,Wunderground v.1.15,2013-09-14 00:58:00,
2013-09-13 20:03:00,54.3,45.5,30.04,East,91,0.0,0.0,72,0.00,,,0.00,Wunderground v.1.15,2013-09-14 01:03:00,
2013-09-13 20:08:00,53.7,44.9,30.04,East,91,0.0,0.0,72,0.00,,,0.00,Wunderground v.1.15,2013-09-14 01:08:00,
2013-09-13 20:13:00,53.1,45.0,30.05,East,91,2.0,2.0,74,0.00,,,0.00,Wunderground v.1.15,2013-09-14 01:13:00,
2013-09-13 20:18:00,52.8,45.1,30.05,East,91,0.0,2.0,75,0.00,,,0.00,Wunderground v.1.15,2013-09-14 01:18:00,
2013-09-13 20:23:00,51.9,44.2,30.05,East,91,0.0,0.0,75,0.00,,,0.00,Wunderground v.1.15,2013-09-14 01:23:00,
2013-09-13 20:28:00,51.5,44.5,30.05,East,91,0.0,0.0,77,0.00,,,0.00,Wunderground v.1.15,2013-09-14 01:28:00,
2013-09-13 20:33:00,51.4,44.4,30.05,East,91,0.0,0.0,77,0.00,,,0.00,Wunderground v.1.15,2013-09-14 01:33:00,
2013-09-13 20:38:00,51.2,44.6,30.05,East,91,0.0,0.0,78,0.00,,,0.00,Wunderground v.1.15,2013-09-14 01:38:00,
2013-09-13 20:43:00,50.5,43.6,30.05,East,91,0.0,0.0,77,0.00,,,0.00,Wunderground v.1.15,2013-09-14 01:43:00,
2013-09-13 20:48:00,50.1,43.8,30.05,East,91,0.0,0.0,79,0.00,,,0.00,Wunderground v.1.15,2013-09-14 01:48:00,
2013-09-13 20:53:00,50.1,44.2,30.04,East,91,0.0,0.0,80,0.00,,,0.00,Wunderground v.1.15,2013-09-14 01:53:00,
2013-09-13 20:58:00,50.2,44.3,30.04,East,91,0.0,0.0,80,0.00,,,0.00,Wunderground v.1.15,2013-09-14 01:58:00,
2013-09-13 21:03:00,50.1,44.2,30.04,East,91,0.0,0.0,80,0.00,,,0.00,Wunderground v.1.15,2013-09-14 02:03:00,
2013-09-13 21:08:00,50.1,44.5,30.04,East,91,0.0,0.0,81,0.00,,,0.00,Wunderground v.1.15,2013-09-14 02:08:00,
2013-09-13 21:13:00,50.1,44.5,30.04,East,91,0.0,0.0,81,0.00,,,0.00,Wunderground v.1.15,2013-09-14 02:13:00,
2013-09-13 21:19:00,50.2,44.6,30.04,East,91,0.0,0.0,81,0.00,,,0.00,Wunderground v.1.15,2013-09-14 02:19:00,
2013-09-13 21:24:00,50.2,44.3,30.04,East,91,0.0,0.0,80,0.00,,,0.00,Wunderground v.1.15,2013-09-14 02:24:00,
2013-09-13 21:29:00,49.9,44.0,30.04,East,91,0.0,0.0,80,0.00,,,0.00,Wunderground v.1.15,2013-09-14 02:29:00,
2013-09-13 21:34:00,49.5,43.6,30.04,East,90,0.0,0.0,80,0.00,,,0.00,Wunderground v.1.15,2013-09-14 02:34:00,
2013-09-13 21:39:00,49.0,43.1,30.04,East,91,0.0,0.0,80,0.00,,,0.00,Wunderground v.1.15,2013-09-14 02:39:00,
2013-09-13 21:44:00,48.5,42.6,30.04,East,91,0.0,0.0,80,0.00,,,0.00,Wunderground v.1.15,2013-09-14 02:44:00,
2013-09-13 21:49:00,48.2,42.6,30.04,East,91,0.0,0.0,81,0.00,,,0.00,Wunderground v.1.15,2013-09-14 02:49:00,
2013-09-13 21:54:00,48.2,43.3,30.03,East,91,0.0,0.0,83,0.00,,,0.00,Wunderground v.1.15,2013-09-14 02:54:00,
2013-09-13 21:59:00,48.0,43.1,30.04,East,91,0.0,0.0,83,0.00,,,0.00,Wunderground v.1.15,2013-09-14 02:59:00,
2013-09-13 22:04:00,47.9,43.0,30.03,East,90,0.0,0.0,83,0.00,,,0.00,Wunderground v.1.15,2013-09-14 03:04:00,
2013-09-13 22:09:00,47.8,43.2,30.03,East,91,0.0,0.0,84,0.00,,,0.00,Wunderground v.1.15,2013-09-14 03:09:00,
2013-09-13 22:14:00,47.6,42.7,30.03,East,91,0.0,0.0,83,0.00,,,0.00,Wunderground v.1.15,2013-09-14 03:14:00,
2013-09-13 22:19:00,47.4,42.8,30.03,East,91,0.0,0.0,84,0.00,,,0.00,Wunderground v.1.15,2013-09-14 03:19:00,
2013-09-13 22:24:00,47.3,42.7,30.03,East,91,0.0,0.0,84,0.00,,,0.00,Wunderground v.1.15,2013-09-14 03:24:00,
2013-09-13 22:29:00,47.3,42.7,30.03,East,91,0.0,0.0,84,0.00,,,0.00,Wunderground v.1.15,2013-09-14 03:29:00,
2013-09-13 22:34:00,47.1,42.5,30.04,East,90,0.0,0.0,84,0.00,,,0.00,Wunderground v.1.15,2013-09-14 03:34:00,
2013-09-13 22:39:00,47.2,42.6,30.04,East,91,2.0,3.0,84,0.00,,,0.00,Wunderground v.1.15,2013-09-14 03:39:00,
2013-09-13 22:44:00,47.5,43.2,30.04,East,91,1.0,3.0,85,0.00,,,0.00,Wunderground v.1.15,2013-09-14 03:44:00,
2013-09-13 22:49:00,48.0,43.7,30.04,East,91,3.0,3.0,85,0.00,,,0.00,Wunderground v.1.15,2013-09-14 03:49:00,
2013-09-13 22:54:00,48.7,44.4,30.04,East,91,3.0,3.0,85,0.00,,,0.00,Wunderground v.1.15,2013-09-14 03:54:00,
2013-09-13 22:59:00,49.2,44.6,30.04,East,91,1.0,3.0,84,0.00,,,0.00,Wunderground v.1.15,2013-09-14 03:59:00,
2013-09-13 23:01:00,49.2,44.6,30.04,East,91,0.0,2.0,84,0.00,,,0.00,Wunderground v.1.15,2013-09-14 04:01:00,
2013-09-13 23:06:00,49.2,44.3,30.04,East,91,0.0,2.0,83,0.00,,,0.00,Wunderground v.1.15,2013-09-14 04:06:00,
2013-09-13 23:12:00,49.0,44.1,30.04,East,91,0.0,0.0,83,0.00,,,0.00,Wunderground v.1.15,2013-09-14 04:12:00,
2013-09-13 23:17:00,48.5,43.6,30.04,East,91,0.0,0.0,83,0.00,,,0.00,Wunderground v.1.15,2013-09-14 04:17:00,
2013-09-13 23:22:00,48.0,43.1,30.04,East,91,2.0,2.0,83,0.00,,,0.00,Wunderground v.1.15,2013-09-14 04:22:00,
2013-09-13 23:27:00,48.0,43.4,30.03,East,91,2.0,3.0,84,0.00,,,0.00,Wunderground v.1.15,2013-09-14 04:27:00,
2013-09-13 23:32:00,48.2,43.6,30.03,East,91,1.0,2.0,84,0.00,,,0.00,Wunderground v.1.15,2013-09-14 04:32:00,
2013-09-13 23:37:00,48.4,43.8,30.03,East,91,1.0,3.0,84,0.00,,,0.00,Wunderground v.1.15,2013-09-14 04:37:00,
2013-09-13 23:42:00,48.3,43.7,30.03,East,91,1.0,2.0,84,0.00,,,0.00,Wunderground v.1.15,2013-09-14 04:42:00,
2013-09-13 23:47:00,48.2,43.6,30.03,East,91,3.0,3.0,84,0.00,,,0.00,Wunderground v.1.15,2013-09-14 04:47:00,
2013-09-13 23:52:00,48.4,43.8,30.03,East,91,3.0,3.0,84,0.00,,,0.00,Wunderground v.1.15,2013-09-14 04:52:00,
2013-09-13 23:57:00,49.2,44.6,30.03,East,91,2.0,7.0,84,0.00,,,0.00,Wunderground v.1.15,2013-09-14 04:57:00,